Main page
Satellite images Climate Cyclones Lightning AirportsFAQ Languages Contact Newsletter About
Weather : Europe Africa North America South America Asia Australia-Oceania Others

0493, Chittagong, Shah Amanat International Airport

latitude: , longitude: Bangladesh, elevation: 22-16N m


METAR: VGEG 160900Z 34008KT 2500 HZ NSC 22/16 Q1010 NOSIG